Weather History for Hermiston, OR

Change the Weather History Date:

Thursday, January 24, 2013

  Actual Average Record
Temperature  
Mean Temperature 28 °F -  
Max Temperature 37 °F 43 °F 63 °F (1935)
Min Temperature 18 °F 28 °F -16 °F (1949)
Degree Days  
Heating Degree Days 38    
Moisture  
Dew Point 25 °F    
Average Humidity 84    
Maximum Humidity 96    
Minimum Humidity 73    
Precipitation  
Precipitation 0.00 in - - ()
Sea Level Pressure  
Sea Level Pressure 30.23 in    
Wind  
Wind Speed 5 mph (ENE)    
Max Wind Speed 13 mph    
Max Gust Speed -    
Visibility 7 miles    
Events      
Averages and records for this station are not official NWS values.
T = Trace of Precipitation, MM = Missing Value Source: NWS Daily Summary

Daily Weather History Graph

Daily Weather History Graph

Search for Another Location

Airport:

Trip Planner

Search our weather history database for the weather conditions in past years. The results will help you decide how hot, cold, wet, or windy it might be!

Date:

Astronomy

Jan. 24, 2013 Rise Set
Actual Time 7:27 AM PST 4:51 PM PST
Civil Twilight 6:54 AM PST 5:24 PM PST
Nautical Twilight 6:18 AM PST 6:00 PM PST
Astronomical Twilight 5:43 AM PST 6:35 PM PST
Moon 2:56 PM PST (1/24) 5:30 AM PST (1/24)
Length of Visible Light 10h 29m
Length of Day
9h 24m
Waxing Gibbous, 95% of the Moon is Illuminated
Jan 24
Waxing Gibbous
Jan 26
Full
Feb 3
Last Quarter
Feb 9
New
Feb 17
First Quarter

Hourly Weather History & Observations

Time (PST) Temp. Windchill Dew Point Humidity Pressure Visibility Wind Dir Wind Speed Gust Speed Precip Events Conditions
12:53 AM 28.0 °F 22.8 °F 25.0 °F 88% 30.18 in 5.0 mi SE 4.6 mph - N/A   Mostly Cloudy
1:53 AM 25.0 °F 20.7 °F 21.9 °F 88% 30.21 in 6.0 mi ESE 3.5 mph - N/A   Clear
2:53 AM 21.0 °F 16.2 °F 19.0 °F 92% 30.23 in 5.0 mi South 3.5 mph - N/A   Clear
4:53 AM 19.9 °F 14.9 °F 19.0 °F 96% 30.24 in 3.0 mi South 3.5 mph - N/A   Clear
5:53 AM 19.9 °F 13.4 °F 18.0 °F 92% 30.25 in 5.0 mi East 4.6 mph - N/A   Clear
6:53 AM 18.0 °F - 16.0 °F 92% 30.27 in 6.0 mi Calm Calm - N/A   Clear
7:53 AM 19.9 °F - 18.0 °F 92% 30.27 in 5.0 mi Calm Calm - N/A   Clear
8:53 AM 27.0 °F - 25.0 °F 92% 30.28 in 5.0 mi Calm Calm - N/A   Clear
9:53 AM 30.0 °F 25.2 °F 27.0 °F 88% 30.29 in 6.0 mi West 4.6 mph - N/A   Clear
10:53 AM 32.0 °F 27.5 °F 28.0 °F 85% 30.28 in 7.0 mi NW 4.6 mph - N/A   Clear
11:53 AM 35.1 °F 31.0 °F 30.0 °F 82% 30.26 in 8.0 mi NNW 4.6 mph - N/A   Clear
12:53 PM 37.0 °F 31.6 °F 30.0 °F 76% 30.23 in 10.0 mi NE 6.9 mph - N/A   Mostly Cloudy
1:34 PM 37.4 °F 30.8 °F 30.2 °F 75% 30.20 in 10.0 mi NE 9.2 mph - N/A   Partly Cloudy
1:53 PM 37.0 °F 31.0 °F 28.9 °F 73% 30.22 in 10.0 mi NE 8.1 mph - N/A   Clear
2:53 PM 36.0 °F 27.5 °F 28.0 °F 73% 30.20 in 10.0 mi NE 12.7 mph - N/A   Clear
3:53 PM 34.0 °F 26.0 °F 28.0 °F 79% 30.21 in 6.0 mi NE 10.4 mph - N/A   Haze
4:53 PM 33.1 °F 27.7 °F 28.0 °F 82% 30.21 in 7.0 mi NE 5.8 mph - N/A   Mostly Cloudy
5:53 PM 33.1 °F 26.1 °F 28.0 °F 82% 30.22 in 8.0 mi NE 8.1 mph - N/A   Overcast
6:53 PM 32.0 °F 24.8 °F 27.0 °F 82% 30.21 in 8.0 mi ENE 8.1 mph - N/A   Overcast
7:53 PM 32.0 °F 27.5 °F 27.0 °F 82% 30.22 in 8.0 mi ENE 4.6 mph - N/A   Overcast
8:53 PM 32.0 °F 24.8 °F 27.0 °F 82% 30.20 in 8.0 mi ENE 8.1 mph - N/A   Mostly Cloudy
9:53 PM 32.0 °F 26.4 °F 27.0 °F 82% 30.21 in 8.0 mi NNE 5.8 mph - 0.00 in   Overcast
10:53 PM 32.0 °F 25.6 °F 28.0 °F 85% 30.20 in 7.0 mi ENE 6.9 mph - 0.00 in   Overcast
11:53 PM 32.0 °F - 28.0 °F 85% 30.20 in 6.0 mi Calm Calm - 0.00 in   Overcast